Ealing Mini Mile
23 Sep 2017

     
Click your name for detailed results

Page 1 of 3 (150 items)
PosBib NoNameGun TimeChip TimeCategoryCat PosGenderGen PosClubPace
111711Jack WHITTAKER5:18.25:17.412-161Male111.3 m/hr
211701Jack COLLARD5:18.25:18.112-162Male211.3 m/hr
311702Chauncey EDWARDS5:24.25:23.512-163Male3EALING SOUTHALL & MIDDLESEX AC11.1 m/hr
411696Ellie OSMOND5:49.35:49.112-161Female1SOUTH LONDON HARRIERS10.3 m/hr
511665Marcus WEST5:49.45:49.012-164Male4EALING SOUTHALL & MIDDLESEX AC10.3 m/hr
611662Tom KERLEY5:50.35:48.712-165Male5EALING EAGLES10.3 m/hr
711664William Paterson DENTON5:58.05:57.912-166Male6TEAM HOUNSLOW10.1 m/hr
811588Maximilian STEEL5:59.15:59.112-167Male7EALING SOUTHALL & MIDDLESEX AC10.0 m/hr
911650Michael GAVIN6:01.66:00.812-168Male810.0 m/hr
1011612Eddie HARRISON6:05.56:03.412-169Male9BRIGHTON PHOENIX9.8 m/hr
1111571Arun SMITH6:07.86:06.812-1610Male109.8 m/hr
1211517Jonah MEZEY6:10.06:09.912-1611Male119.7 m/hr
1311655Alfie DAVIS6:11.36:11.312-1612Male129.7 m/hr
1411558Luka TOMASEVIC6:12.56:12.312-1613Male139.7 m/hr
1511672Talvin MCCLUNIE6:12.96:07.212-1614Male14EALING AND SOUTHALL ATHLETICS CLUB9.7 m/hr
1611630Joseph COULSTOCK6:15.16:15.012-1615Male159.6 m/hr
1711713Amrik GROVER6:15.66:15.412-1616Male169.6 m/hr
1811679Dominic De VIVENOT6:18.66:15.512-1617Male17EALING EAGLES9.5 m/hr
1911685Miles MURPHY6:20.16:18.812-1618Male189.5 m/hr
2011501Eliott MANNING6:22.76:22.512-1619Male199.4 m/hr
2111689Sam NUTTALL6:24.76:23.312-1620Male209.4 m/hr
2211572Kobi SMITH6:24.96:24.312-1621Male219.4 m/hr
2311620Joshua MOERDYK6:25.46:23.812-1622Male229.3 m/hr
2411519Luka PAVICEVIC6:25.56:23.712-1623Male23CTS SCHOOL9.3 m/hr
2511636Dylan LEWIS6:25.66:24.712-1624Male249.3 m/hr
2611616Joseph BROOKS6:26.26:25.612-1625Male259.3 m/hr
2711599Finley ALLAN6:29.86:28.912-1626Male269.2 m/hr
2811596Joseph FLITTER6:30.56:30.312-1627Male279.2 m/hr
2911675Mia SIMPSON6:32.46:31.412-162Female2ST AUGUSTINE'S PRIORY 9.2 m/hr
3011617Andre SAVIC6:35.76:35.212-1628Male289.1 m/hr
3111592Daniel AHERNE6:37.06:35.712-1629Male299.1 m/hr
3211623Michal WIKTOR6:37.46:35.712-1630Male309.1 m/hr
3311607Charlie SODEN6:37.46:32.212-1631Male319.1 m/hr
3411624Oscar NEWALL6:38.86:37.112-1632Male32EALING EAGLES9.0 m/hr
3511691Elizabeth HIGHAM6:40.76:39.212-163Female3ST AUGUSTINE'S PRIORY 9.0 m/hr
3611530Edward MULRENAN6:40.76:36.512-1633Male33EALING EAGLES9.0 m/hr
3711582Neel KANTAMANENI6:41.46:36.012-1634Male349.0 m/hr
3811709Olivia AGROTIS6:42.56:40.312-164Female4ST AUGUSTINE'S PRIORY 8.9 m/hr
3911657Dylan LINEHAN6:43.16:41.612-1635Male358.9 m/hr
4011610Imogen PARKER-ELMS6:43.26:42.912-165Female5SMRAC8.9 m/hr
4111634Lucas Vinge FRYER6:47.16:44.712-1636Male36EALING EAGLES8.8 m/hr
4211514Noah WILLIAMS6:48.26:44.212-1637Male378.8 m/hr
4311510Andrew Da COSTA6:51.66:50.712-1638Male388.7 m/hr
4411648Mia SMITH6:52.06:51.812-166Female68.7 m/hr
4511671Lucie PRIBYL6:52.56:50.012-167Female78.7 m/hr
4611602Millie VADON6:53.36:52.412-168Female88.7 m/hr
4711573Noah STEWART6:53.46:52.912-1639Male398.7 m/hr
4811561Thomas BASS6:54.06:53.612-1640Male408.7 m/hr
4911527Pascale KERLEY6:59.16:57.612-169Female9EALING EAGLES8.6 m/hr
5011543Emily SHIELDS6:59.96:56.912-1610Female10EALING EAGLES8.6 m/hr
Page 1 of 3 (150 items)
   

fb